Location: Luz Observatory
(34.5000°N, 117.2833°W)
Time: 19:11:27
(UTC-07:00)

Daily predictions for brighter satellites

Satellite Brightness Start Highest point End
(mag) Time Altitude Azimuth Time Altitude Azimuth Time Altitude Azimuth
Tiangong 1 3.0 20:35:19 10° SSE 20:36:44 13° SE 20:38:09 10° ESE
SPOT 5 4.5 20:35:26 10° ESE 20:38:25 18° ENE 20:41:31 10° NNE
Envisat 4.2 20:34:33 10° ESE 20:38:40 26° ENE 20:42:49 10° NNE
H-2A R/B 3.0 20:41:08 10° S 20:44:58 72° W 20:48:48 10° NNW
ERS-1 Rocket 3.3 20:40:17 10° SSE 20:45:08 51° ENE 20:50:01 10° N
Cosmos 1437 Rocket 4.1 20:42:38 10° NNE 20:45:39 22° ENE 20:48:31 11° SE
CZ-2D R/B 4.1 20:42:46 10° S 20:46:33 52° W 20:50:21 10° NNW
Cosmos 1515 Rocket 4.3 20:43:32 10° NNE 20:47:35 34° E 20:51:36 10° SE
Cosmos 1378 4.2 20:45:04 10° SSW 20:48:43 49° W 20:52:21 10° N
DELTA 2 R/B (1) 4.3 20:44:44 10° WNW 20:50:09 51° N 20:55:33 10° E
H-2A R/B 3.8 20:48:02 10° S 20:50:33 19° SE 20:56:07 10° E
AVUM R/B 3.1 20:49:52 10° S 20:51:52 30° ESE 20:54:00 10° NE
Cosmos 1777 Rocket 4.1 20:49:07 10° S 20:54:18 60° ESE 20:59:29 10° NNE
SJ-11-01 4.3 20:53:07 10° SSE 20:57:46 67° ENE 21:02:29 10° N
Cosmos 2151 4.2 20:55:05 12° SE 20:58:04 23° E 21:01:25 10° NE
Meteor 1-21 Rocket 4.1 20:57:07 10° S 21:02:39 78° E 21:08:11 10° NNE
CZ-2C R/B -0.2 21:02:44 31° SE 21:03:15 48° ENE 21:04:52 10° N
Cosmos 2266 Rocket 4.3 20:58:24 10° SSE 21:04:28 50° E 21:10:27 10° NNE
Cosmos 1553 Rocket 4.0 21:03:53 10° N 21:10:18 87° E 21:16:36 10° S
NOSS 3-1 (C) 4.0 21:06:27 10° S 21:11:24 30° ESE 21:16:40 10° NE
Cosmos 1151 Rocket 3.7 21:08:55 10° NNE 21:12:57 37° E 21:15:32 19° SE
ARGOS 4.4 21:18:34 16° ESE 21:21:27 25° ENE 21:25:46 10° NNE
Cosmos 2058 3.9 21:22:14 22° ESE 21:23:35 27° E 21:27:02 10° NNE
Cosmos 1538 Rocket 4.3 21:21:31 10° NNW 21:26:49 67° WSW 21:31:30 13° S
Cosmos 1680 Rocket 4.2 21:22:16 10° N 21:27:10 39° ENE 21:29:57 22° ESE
H-2A R/B 2.3 21:25:15 13° S 21:29:11 72° WSW 21:33:44 10° NNW
Cosmos 923 Rocket 4.2 21:25:51 10° N 21:30:58 56° ENE 21:33:56 24° SE
CZ-4 SHROUD 3.4 21:30:10 34° SE 21:31:14 54° ENE 21:34:18 10° N
CZ-4B R/B 3.7 21:30:01 10° NNE 21:35:08 51° E 21:38:40 19° S
Cosmos 2219 3.3 21:29:34 10° S 21:35:11 57° ESE 21:40:49 10° NNE
Terra 3.9 21:34:39 11° E 21:36:01 12° ENE 21:37:58 10° NE
Cosmos 1726 4.0 21:34:50 10° NE 21:37:19 17° ENE 21:37:27 17° E
Cosmos 1898 Rocket 4.4 21:36:31 25° ESE 21:37:46 28° E 21:42:09 10° NE
Nadezhda 2 Rocket 4.4 21:39:12 15° S 21:44:25 71° E 21:50:30 10° N
Cosmos 2322 3.8 21:41:39 10° NNW 21:47:22 66° ENE 21:50:11 30° SE
OAO 2 Rocket 3.7 21:43:18 10° SW 21:48:20 43° SSE 21:50:41 27° ESE
Cosmos 773 Rocket 4.1 21:44:45 10° NNW 21:49:56 72° WSW 21:53:00 25° S
Cosmos 2322 Rocket 3.4 21:46:12 10° NW 21:51:14 35° WSW 21:55:50 12° SSW
CZ-4 R/B 4.0 21:49:04 10° NNE 21:53:54 54° E 21:55:46 34° SSE
Cosmos 1908 3.9 21:50:57 10° NNW 21:54:44 51° W 21:56:49 24° SSW
ATLAS CENTAUR R/B 3.9 21:53:35 10° WNW 21:55:52 14° WSW 21:58:04 10° SW
NOAA 11 4.4 21:58:26 34° SE 22:00:32 55° ENE 22:05:51 10° N
SL-16 R/B 3.7 21:56:25 10° NW 22:01:20 31° WSW 22:05:40 13° SSW
Cosmos 2360 Rocket 2.1 21:55:57 10° NNW 22:01:38 89° W 22:04:09 35° SSE
Meteor 1-4 Rocket 4.1 22:05:55 10° NNE 22:08:33 25° ENE 22:08:33 25° ENE
Meteor 1-11 4.2 22:07:23 28° S 22:10:34 82° E 22:16:20 10° N
MetOp-B 4.4 22:08:11 28° S 22:10:59 64° WSW 22:16:19 10° NNW
Delta 2 Rocket 2.8 22:08:46 10° W 22:12:14 74° N 22:12:16 73° N
Tiangong 1 2.6 22:09:54 10° WSW 22:11:30 28° WSW 22:11:30 28° WSW
USA 32 4.5 22:08:44 10° N 22:13:44 43° E 22:14:33 40° ESE
NOSS 3-1 (A) 3.2 22:08:26 11° SSW 22:14:00 75° ESE 22:20:19 10° NE
SPOT 5 3.9 22:13:47 22° SSW 22:16:07 37° W 22:20:29 10° NNW
Cosmos 2242 Rocket 4.1 22:12:14 10° N 22:16:28 41° E 22:16:36 41° E
Envisat 4.5 22:13:54 14° SSW 22:17:30 30° W 22:21:59 10° NW
SL-08 RB Rocket 3.6 22:18:54 61° SE 22:19:36 75° ENE 22:24:04 10° N
Cosmos 1300 2.5 22:17:14 10° N 22:21:05 89° E 22:21:07 87° SE
DELTA 2 DEB (DPAF) 4.2 22:20:39 54° E 22:21:06 57° ENE 22:25:30 10° N
Cosmos 2227 Rocket 2.9 22:24:14 35° E 22:24:14 35° E 22:28:53 10° NE
USA 245 4.3 22:25:26 29° NW 22:25:26 29° NW 22:26:57 10° NNW
FALCON 9 R/B 4.0 22:00:24 10° W 22:30:34 89° S 22:36:25 18° E
CARTOSAT-1 4.0 22:31:26 47° ENE 22:31:26 47° ENE 22:35:25 10° N
Cosmos 2298 Rocket 4.2 22:28:49 26° SSW 22:31:50 69° WNW 22:37:09 10° NNE
Cosmos 2112 Rocket 4.4 22:26:58 10° NNW 22:32:06 57° WSW 22:33:34 42° SSW
YAOGAN 6 4.1 22:32:27 29° WSW 22:32:55 30° W 22:36:09 10° NW
Sich 1 3.3 22:33:56 53° SW 22:34:46 66° W 22:39:10 10° N
Cosmos 1633 Rocket 3.2 22:35:11 58° SW 22:35:50 68° W 22:40:12 10° N
Cosmos 2333 Rocket 3.3 22:31:06 10° N 22:36:07 30° ENE 22:37:11 28° E
ATLAS 2AS CENTAUR R/B 3.2 22:35:30 42° SE 22:36:23 44° ESE 22:43:44 10° NE
DELTA 2 R/B (1) 3.4 22:31:19 10° WNW 22:36:53 87° SSW 22:37:53 61° ESE
Cosmos 1937 Rocket 3.3 22:38:36 62° S 22:39:30 83° ESE 22:44:44 10° NNE
SL-16 R/B 4.4 22:37:33 10° NNE 22:39:51 12° NE 22:41:37 11° ENE
CZ-4C R/B 3.8 22:40:55 50° NNW 22:40:55 50° NNW 22:43:35 10° NNW
Cosmos 1455 3.9 22:40:30 10° NNE 22:42:36 25° NE 22:42:36 25° NE
COSMOS 2428 2.6 22:42:13 10° NNW 22:47:54 77° WSW 22:48:48 63° S
Cosmos 2297 Rocket 2.9 22:52:11 38° ENE 22:52:11 38° ENE 22:56:27 10° NE
H-2A R/B 1.9 22:50:52 73° SSE 22:51:25 88° ENE 22:56:51 10° NNW
Cosmos 990 Rocket 3.8 22:53:39 78° E 22:53:39 78° E 22:58:42 10° NNE
Landsat 7 4.0 22:57:10 60° WSW 22:57:20 60° W 23:02:03 10° NNW
ATLAS 3B R/B 4.3 22:54:53 10° N 23:00:18 23° NE 23:03:20 17° E
ARGOS 4.2 23:00:05 31° SW 23:01:27 36° W 23:06:24 10° NNW
Cosmos 2219 Rocket 2.1 22:58:22 10° NNW 23:03:57 70° ENE 23:04:08 69° E
Cosmos 1241 Rocket 4.3 23:05:02 59° SSW 23:06:18 89° WNW 23:12:34 10° NNE
Spot 4 3.9 23:10:46 75° NNW 23:10:46 75° NNW 23:15:14 10° NNW
Cosmos 292 Rocket 4.0 23:06:29 10° NNW 23:10:41 65° NW 23:10:41 65° NW
Cosmos 1726 4.2 23:09:35 10° NW 23:12:08 22° WNW 23:12:08 22° WNW
Terra 2.2 23:13:32 58° W 23:13:32 58° W 23:17:55 10° NNW
Cosmos 1271 Rocket 4.3 23:11:07 10° NNW 23:13:42 32° WNW 23:13:42 32° WNW
Cosmos 1980 3.7 23:13:55 10° NNW 23:19:25 67° ENE 23:19:25 67° ENE
Nadezhda 1 Rocket 3.9 23:15:13 10° NNW 23:21:16 70° W 23:21:53 65° SW
Cosmos 1125 Rocket 4.1 23:26:44 47° NE 23:26:44 47° NE 23:30:42 10° NNE
COSMOS 2455 3.9 23:22:51 10° N 23:28:13 33° NE 23:28:56 32° ENE
Cosmos 2082 4.1 23:30:58 53° W 23:31:45 58° WNW 23:37:25 10° NNE
Cosmos 2237 Rocket 2.2 23:26:59 10° NNW 23:32:20 75° NNE 23:32:20 75° NNE
SeaSat 1 3.3 23:35:08 42° NE 23:35:08 42° NE 23:39:16 10° N
Cosmos 1709 Rocket 3.8 23:37:05 84° W 23:37:09 84° W 23:43:17 10° N
Cosmos 2292 Rocket 4.4 23:37:15 77° E 23:37:16 77° E 23:44:48 10° N
